Altus AFB, OK

7:18 AM CST on November 21, 2019 (GMT -0600)
Altus Air Force Base

Weather History for KLTS - September, 2019

Change the Weather History Date:

Sunday, September 15, 2019

  Actual Average Record
Temperature  
Mean Temperature 80 °F -  
Max Temperature 95 °F 85 °F 98 °F (1997)
Min Temperature 66 °F 62 °F 50 °F (2003)
Cooling Degree Days 15    
Growing Degree Days 30 (Base 50)    
Moisture  
Dew Point 62 °F    
Average Humidity 60    
Maximum Humidity 89    
Minimum Humidity 25    
Precipitation  
Precipitation 0.00 in - - ()
Sea Level Pressure  
Sea Level Pressure 30.05 in    
Wind  
Wind Speed 5 mph ()    
Max Wind Speed 13 mph    
Max Gust Speed -    
Visibility 10.0 miles    
Events      
Averages and records for this station are not official NWS values.
T = Trace of Precipitation, MM = Missing Value Source: Averaged Metar Reports

Daily Weather History Graph

Daily Weather History Graph

Search for Another Location

Airport or City:

Astronomy

Sep. 15, 2019 Rise Set
Actual Time 7:19 AM CDT 7:44 PM CDT
Civil Twilight 6:54 AM CDT 8:09 PM CDT
Nautical Twilight 6:25 AM CDT 8:38 PM CDT
Astronomical Twilight 5:54 AM CDT 9:09 PM CDT
Moon 8:54 PM CDT (9/15) 8:30 AM CDT (9/15)
Length of Visible Light 13h 14m
Length of Day
12h 24m
Full, 98% of the Moon is Illuminated
Sep 15
Full
Sep 21
Last Quarter
Sep 28
New
Oct 5
First Quarter
Oct 13
Full

Hourly Weather History & Observations

Time (CDT) Temp. Heat Index Dew Point Humidity Pressure Visibility Wind Dir Wind Speed Gust Speed Precip Events Conditions
12:56 AM 71.2 °F - 64.4 °F 79% 30.07 in 10.0 mi SE 4.6 mph - N/A   Clear
1:56 AM 70.5 °F - 64.0 °F 80% 30.08 in 10.0 mi ESE 5.8 mph - N/A   Clear
2:56 AM 69.4 °F - 63.7 °F 82% 30.08 in 10.0 mi ESE 3.5 mph - N/A   Clear
3:56 AM 68.2 °F - 64.2 °F 87% 30.07 in 10.0 mi SE 4.6 mph - N/A   Clear
4:56 AM 67.8 °F - 63.9 °F 87% 30.06 in 10.0 mi Calm Calm - N/A   Clear
5:56 AM 67.3 °F - 63.9 °F 89% 30.07 in 10.0 mi East 4.6 mph - N/A   Clear
6:56 AM 66.9 °F - 63.1 °F 88% 30.08 in 10.0 mi East 5.8 mph - N/A   Clear
7:56 AM 67.3 °F - 63.5 °F 88% 30.09 in 10.0 mi East 5.8 mph - N/A   Clear
8:56 AM 73.6 °F - 65.5 °F 76% 30.09 in 10.0 mi Calm Calm - N/A   Clear
9:56 AM 78.6 °F - 64.4 °F 62% 30.09 in 10.0 mi South 3.5 mph - N/A   Clear
10:56 AM 83.1 °F 84.6 °F 64.2 °F 53% 30.10 in 10.0 mi South 5.8 mph - N/A   Clear
11:56 AM 89.1 °F 89.0 °F 60.8 °F 39% 30.09 in 10.0 mi SSW 6.9 mph - N/A   Clear
12:56 PM 93.0 °F 91.7 °F 57.0 °F 30% 30.07 in 10.0 mi SSW 8.1 mph - N/A   Clear
1:56 PM 93.9 °F 92.2 °F 55.8 °F 28% 30.04 in 10.0 mi SSW 5.8 mph - N/A   Clear
2:56 PM 94.8 °F 92.8 °F 54.5 °F 26% 30.02 in 10.0 mi SSE 12.7 mph - N/A   Clear
3:56 PM 94.8 °F 92.5 °F 53.4 °F 25% 30.01 in 10.0 mi South 9.2 mph - N/A   Clear
4:56 PM 94.8 °F 92.5 °F 53.4 °F 25% 29.99 in 10.0 mi South 10.4 mph - N/A   Clear
5:56 PM 93.7 °F 92.3 °F 56.7 °F 29% 29.98 in 10.0 mi South 8.1 mph - N/A   Clear
6:56 PM 88.2 °F 89.0 °F 62.8 °F 43% 29.98 in 10.0 mi SSE 8.1 mph - N/A   Clear
7:56 PM 80.4 °F 81.5 °F 61.7 °F 53% 29.99 in 10.0 mi SE 6.9 mph - N/A   Clear
8:56 PM 76.3 °F - 62.8 °F 63% 29.99 in 10.0 mi ESE 9.2 mph - N/A   Clear
9:56 PM 76.8 °F - 63.1 °F 63% 30.01 in 10.0 mi ESE 8.1 mph - N/A   Clear
10:56 PM 74.1 °F - 64.9 °F 73% 30.03 in 10.0 mi ESE 8.1 mph - N/A   Clear
11:56 PM 74.1 °F - 65.7 °F 75% 30.02 in 10.0 mi SE 5.8 mph - N/A   Clear